Location: ???????
(55.4362°N, 38.1183°E)
Time: 12:27:04
(UTC+00:00)

deb Delta 139 - Pass Details

Date: 04 February 2022
Orbit: 790 x 1093 km, 98.7° (Epoch: 23 May)

Event Time Altitude Azimuth Distance (km) Brightness Sun altitude
Rises 03:30:21 0° 17° (NNE) 3,747 ? -14.9°
Reaches altitude 10° 03:32:50 10° 21° (NNE) 2,830 ? -14.5°
Maximum altitude 03:39:14 62° 102° (ESE) 1,195 ? -13.6°
Drops below altitude 10° 03:45:52 10° 182° (S) 2,935 ? -12.7°
Sets 03:48:29 0° 186° (S) 3,894 ? -12.3°
